When you browse on this site, cookies collect data to enhance your experience and personalize the content and advertising you see.
Visit our Privacy Policy to learn more. By continuing to use the site, you agree to this use of cookies and data.
  • In Portugal
  • List of Countries
  • For 7 days
  • Water Temperature
  • Satellite Maps
  • Weather Map
  • Weather Widgets
  • user-avatar
    Login

    Hourly Weather Bandar Abbas

    Today, 16 July, Tuesday

    Time Temperature Precipitation Wind Pressure Humidity
    00:00 +35°C° 0 mm 2 mps 746 mmHg 71%
    01:00 +35°C° 0 mm 2 mps 746 mmHg 71%
    02:00 +34°C° 0 mm 2 mps 746 mmHg 75%
    03:00 +33°C° 0 mm 1 mps 746 mmHg 80%
    04:00 +32°C° 0 mm 1 mps 745 mmHg 85%
    05:00 +33°C° 0 mm 1 mps 746 mmHg 82%
    06:00 +33°C° 0 mm 1 mps 746 mmHg 79%
    07:00 +34°C° 0 mm 1 mps 747 mmHg 76%
    08:00 +36°C° 0 mm 2 mps 747 mmHg 69%
    09:00 +37°C° 0 mm 3 mps 747 mmHg 62%
    10:00 +40°C° 0 mm 4 mps 747 mmHg 55%
    11:00 +41°C° 0 mm 5 mps 746 mmHg 51%
    12:00 +42°C° 0 mm 5 mps 746 mmHg 47%
    13:00 +43°C° 0 mm 5 mps 746 mmHg 42%
    14:00 +43°C° 0 mm 5 mps 745 mmHg 44%
    15:00 +42°C° 0 mm 5 mps 745 mmHg 46%
    16:00 +42°C° 0 mm 5 mps 745 mmHg 48%
    17:00 +41°C° 0 mm 5 mps 745 mmHg 52%
    18:00 +38°C° 0 mm 4 mps 745 mmHg 56%
    19:00 +37°C° 0 mm 4 mps 746 mmHg 61%
    20:00 +36°C° 0 mm 4 mps 746 mmHg 67%
    21:00 +35°C° 0 mm 3 mps 747 mmHg 72%
    22:00 +35°C° 0 mm 3 mps 748 mmHg 78%
    23:00 +34°C° 0 mm 2 mps 748 mmHg 78%

    Tomorrow, 17 July, Wednesday

    Time Temperature Precipitation Wind Pressure Humidity
    00:00 +33°C° 0 mm 1 mps 748 mmHg 78%
    01:00 +33°C° 0 mm 1 mps 747 mmHg 78%
    02:00 +33°C° 0 mm 1 mps 747 mmHg 78%
    03:00 +32°C° 0 mm 1 mps 747 mmHg 79%
    04:00 +32°C° 0 mm 1 mps 747 mmHg 79%
    05:00 +34°C° 0 mm 2 mps 747 mmHg 78%
    06:00 +34°C° 0 mm 2 mps 748 mmHg 76%
    07:00 +35°C° 0 mm 3 mps 748 mmHg 75%
    08:00 +36°C° 0 mm 4 mps 748 mmHg 71%
    09:00 +37°C° 0 mm 5 mps 748 mmHg 67%
    10:00 +37°C° 0 mm 5 mps 748 mmHg 63%
    11:00 +39°C° 0 mm 5 mps 748 mmHg 60%
    12:00 +39°C° 0 mm 5 mps 748 mmHg 56%
    13:00 +40°C° 0 mm 5 mps 748 mmHg 53%
    14:00 +40°C° 0 mm 4 mps 747 mmHg 50%
    15:00 +39°C° 0 mm 3 mps 747 mmHg 46%
    16:00 +40°C° 0 mm 2 mps 746 mmHg 43%
    17:00 +39°C° 0 mm 2 mps 747 mmHg 50%
    18:00 +37°C° 0 mm 3 mps 747 mmHg 57%
    19:00 +36°C° 0 mm 3 mps 747 mmHg 64%
    20:00 +35°C° 0 mm 3 mps 747 mmHg 70%
    21:00 +34°C° 0 mm 2 mps 748 mmHg 76%
    22:00 +32°C° 0 mm 2 mps 748 mmHg 82%
    23:00 +32°C° 0 mm 2 mps 748 mmHg 84%

    Day after tomorrow, 18 July, Thursday

    Time Temperature Precipitation Wind Pressure Humidity
    00:00 +31°C° 0 mm 2 mps 748 mmHg 86%
    01:00 +31°C° 0 mm 2 mps 748 mmHg 88%
    02:00 +31°C° 0 mm 2 mps 747 mmHg 89%
    03:00 +31°C° 0 mm 2 mps 747 mmHg 90%
    04:00 +30°C° 0 mm 3 mps 747 mmHg 91%
    05:00 +31°C° 0 mm 3 mps 747 mmHg 88%
    06:00 +31°C° 0 mm 3 mps 748 mmHg 85%
    07:00 +33°C° 0 mm 3 mps 748 mmHg 83%
    08:00 +34°C° 0 mm 4 mps 748 mmHg 76%
    09:00 +36°C° 0 mm 4 mps 749 mmHg 69%
    10:00 +37°C° 0 mm 4 mps 749 mmHg 62%
    11:00 +39°C° 0 mm 5 mps 748 mmHg 60%
    12:00 +39°C° 0 mm 5 mps 748 mmHg 58%
    13:00 +39°C° 0 mm 5 mps 747 mmHg 57%
    14:00 +40°C° 0 mm 4 mps 747 mmHg 55%
    15:00 +39°C° 0 mm 3 mps 746 mmHg 53%
    16:00 +39°C° 0 mm 3 mps 746 mmHg 52%
    17:00 +38°C° 0 mm 3 mps 746 mmHg 56%
    18:00 +37°C° 0 mm 3 mps 746 mmHg 61%
    19:00 +36°C° 0 mm 3 mps 747 mmHg 65%
    20:00 +35°C° 0 mm 2 mps 747 mmHg 73%
    21:00 +34°C° 0 mm 2 mps 748 mmHg 80%
    22:00 +32°C° 0 mm 1 mps 748 mmHg 87%
    23:00 +31°C° 0 mm 1 mps 748 mmHg 88%

    19 July, Friday

    Time Temperature Precipitation Wind Pressure Humidity
    00:00 +31°C° 0 mm 1 mps 748 mmHg 89%
    01:00 +30°C° 0 mm 1 mps 747 mmHg 90%
    02:00 +30°C° 0 mm 1 mps 747 mmHg 91%
    03:00 +30°C° 0 mm 2 mps 747 mmHg 91%
    04:00 +30°C° 0 mm 2 mps 747 mmHg 91%
    05:00 +30°C° 0 mm 2 mps 747 mmHg 88%
    06:00 +31°C° 0 mm 2 mps 748 mmHg 84%
    07:00 +32°C° 0 mm 2 mps 748 mmHg 81%
    08:00 +34°C° 0 mm 3 mps 748 mmHg 73%
    09:00 +36°C° 0 mm 3 mps 748 mmHg 64%
    10:00 +38°C° 0 mm 3 mps 749 mmHg 56%
    11:00 +39°C° 0 mm 3 mps 748 mmHg 55%
    12:00 +39°C° 0 mm 3 mps 748 mmHg 54%
    13:00 +41°C° 0 mm 4 mps 747 mmHg 52%
    14:00 +41°C° 0 mm 4 mps 747 mmHg 53%
    15:00 +41°C° 0 mm 4 mps 746 mmHg 53%
    16:00 +40°C° 0 mm 3 mps 746 mmHg 53%
    17:00 +39°C° 0 mm 3 mps 746 mmHg 57%
    18:00 +38°C° 0 mm 3 mps 746 mmHg 61%
    19:00 +37°C° 0 mm 2 mps 747 mmHg 65%
    20:00 +36°C° 0 mm 2 mps 747 mmHg 70%
    21:00 +35°C° 0 mm 2 mps 747 mmHg 76%
    22:00 +32°C° 0 mm 1 mps 748 mmHg 81%
    23:00 +32°C° 0 mm 1 mps 748 mmHg 80%

    20 July, Saturday

    Time Temperature Precipitation Wind Pressure Humidity
    00:00 +32°C° 0 mm 1 mps 747 mmHg 79%
    01:00 +30°C° 0 mm 0 mps 747 mmHg 78%
    02:00 +30°C° 0 mm 0 mps 747 mmHg 79%
    03:00 +29°C° 0 mm 0 mps 747 mmHg 80%
    04:00 +31°C° 0 mm 1 mps 747 mmHg 80%
    05:00 +32°C° 0 mm 1 mps 748 mmHg 77%
    06:00 +32°C° 0 mm 1 mps 748 mmHg 75%
    07:00 +34°C° 0 mm 2 mps 749 mmHg 72%
    08:00 +36°C° 0 mm 2 mps 749 mmHg 65%
    09:00 +38°C° 0 mm 3 mps 749 mmHg 57%
    10:00 +41°C° 0 mm 4 mps 749 mmHg 50%
    11:00 +41°C° 0 mm 4 mps 749 mmHg 51%
    12:00 +41°C° 0 mm 4 mps 748 mmHg 52%
    13:00 +42°C° 0 mm 5 mps 748 mmHg 53%
    14:00 +42°C° 0 mm 5 mps 747 mmHg 53%
    15:00 +42°C° 0 mm 4 mps 747 mmHg 53%
    16:00 +42°C° 0 mm 4 mps 747 mmHg 53%
    17:00 +40°C° 0 mm 4 mps 747 mmHg 57%
    18:00 +38°C° 0 mm 3 mps 747 mmHg 61%
    19:00 +37°C° 0 mm 3 mps 747 mmHg 65%
    20:00 +36°C° 0 mm 3 mps 747 mmHg 70%
    21:00 +35°C° 0 mm 3 mps 748 mmHg 75%
    22:00 +34°C° 0 mm 3 mps 748 mmHg 81%
    23:00 +34°C° 0 mm 2 mps 748 mmHg 83%

    21 July, Sunday

    Time Temperature Precipitation Wind Pressure Humidity
    00:00 +32°C° 0 mm 2 mps 748 mmHg 85%
    01:00 +32°C° 0 mm 1 mps 748 mmHg 87%
    02:00 +32°C° 0 mm 2 mps 747 mmHg 88%
    03:00 +31°C° 0 mm 2 mps 747 mmHg 89%
    04:00 +31°C° 0 mm 3 mps 747 mmHg 90%
    05:00 +33°C° 0 mm 3 mps 747 mmHg 87%
    06:00 +33°C° 0 mm 4 mps 748 mmHg 85%
    07:00 +34°C° 0 mm 4 mps 748 mmHg 83%
    08:00 +35°C° 0 mm 4 mps 748 mmHg 77%
    09:00 +36°C° 0 mm 5 mps 748 mmHg 72%
    10:00 +37°C° 0 mm 5 mps 748 mmHg 66%
    11:00 +37°C° 0 mm 5 mps 748 mmHg 65%
    12:00 +39°C° 0 mm 5 mps 747 mmHg 63%
    13:00 +38°C° 0 mm 4 mps 747 mmHg 62%
    14:00 +38°C° 0 mm 4 mps 746 mmHg 59%
    15:00 +39°C° 0 mm 3 mps 746 mmHg 56%
    16:00 +39°C° 0 mm 3 mps 745 mmHg 53%
    17:00 +38°C° 0 mm 3 mps 745 mmHg 56%
    18:00 +37°C° 0 mm 3 mps 746 mmHg 60%
    19:00 +36°C° 0 mm 4 mps 746 mmHg 63%
    20:00 +35°C° 0 mm 3 mps 746 mmHg 71%
    21:00 +34°C° 0 mm 3 mps 747 mmHg 79%
    22:00 +32°C° 0 mm 2 mps 747 mmHg 87%
    23:00 +31°C° 0 mm 2 mps 747 mmHg 87%
    Show more